Time,TemperatureF,DewpointF,PressureIn,WindDirection,WindDirectionDegrees,WindSpeedMPH,WindSpeedGustMPH,Humidity,HourlyPrecipIn,Conditions,Clouds,dailyrainin,SoftwareType,DateUTC
2013-07-28 00:02:00,70.0,69.0,29.90,North,0,0.0,0.0,97,0.01,,,0.20,,2013-07-28 04:02:00,
2013-07-28 00:12:00,70.0,69.0,29.90,North,0,0.0,0.0,97,0.01,,,0.20,,2013-07-28 04:12:00,
2013-07-28 00:22:00,70.0,69.0,29.90,North,0,0.0,0.0,97,0.01,,,0.20,,2013-07-28 04:22:00,
2013-07-28 00:32:00,70.0,69.0,29.90,North,0,0.0,0.0,97,0.01,,,0.20,,2013-07-28 04:32:00,
2013-07-28 00:43:00,70.0,69.0,29.91,North,0,0.0,0.0,97,0.01,,,0.20,,2013-07-28 04:43:00,
2013-07-28 00:53:00,70.0,69.0,29.91,North,0,0.0,0.0,97,0.01,,,0.20,,2013-07-28 04:53:00,
2013-07-28 01:02:00,70.0,69.0,29.90,North,0,0.0,0.0,97,0.00,,,0.20,,2013-07-28 05:02:00,
2013-07-28 01:12:00,70.0,69.0,29.90,North,0,0.0,0.0,98,0.00,,,0.20,,2013-07-28 05:12:00,
2013-07-28 01:22:00,70.0,69.0,29.90,North,0,0.0,0.0,98,0.00,,,0.20,,2013-07-28 05:22:00,
2013-07-28 01:32:00,70.0,69.0,29.90,North,0,0.0,0.0,98,0.00,,,0.20,,2013-07-28 05:32:00,
2013-07-28 01:43:00,70.0,69.0,29.89,North,0,0.0,0.0,98,0.00,,,0.20,,2013-07-28 05:43:00,
2013-07-28 01:53:00,70.0,69.0,29.89,North,0,0.0,0.0,98,0.00,,,0.20,,2013-07-28 05:53:00,
2013-07-28 02:02:00,70.0,69.0,29.89,North,0,0.0,0.0,98,0.00,,,0.20,,2013-07-28 06:02:00,
2013-07-28 02:12:00,70.0,69.0,29.89,North,0,0.0,0.0,98,0.00,,,0.20,,2013-07-28 06:12:00,
2013-07-28 02:22:00,70.0,69.0,29.88,North,0,0.0,0.0,98,0.00,,,0.20,,2013-07-28 06:22:00,
2013-07-28 02:32:00,70.0,69.0,29.88,North,0,0.0,0.0,97,0.00,,,0.20,,2013-07-28 06:32:00,
2013-07-28 02:43:00,70.0,69.0,29.87,North,0,0.0,0.0,98,0.00,,,0.20,,2013-07-28 06:43:00,
2013-07-28 02:52:00,70.0,69.0,29.87,North,0,0.0,0.0,98,0.00,,,0.20,,2013-07-28 06:52:00,
2013-07-28 03:02:00,70.0,69.0,29.88,North,0,0.0,0.0,98,0.00,,,0.20,,2013-07-28 07:02:00,
2013-07-28 03:12:00,70.0,69.0,29.88,North,0,0.0,0.0,98,0.00,,,0.20,,2013-07-28 07:12:00,
2013-07-28 03:23:00,70.0,69.0,29.88,North,0,0.0,0.0,98,0.00,,,0.20,,2013-07-28 07:23:00,
2013-07-28 03:32:00,70.0,69.0,29.88,North,0,0.0,0.0,98,0.00,,,0.20,,2013-07-28 07:32:00,
2013-07-28 03:43:00,70.0,69.0,29.87,North,0,0.0,0.0,98,0.00,,,0.20,,2013-07-28 07:43:00,
2013-07-28 03:53:00,70.0,69.0,29.87,North,0,0.0,0.0,98,0.00,,,0.20,,2013-07-28 07:53:00,
2013-07-28 04:02:00,70.0,69.0,29.87,North,0,0.0,0.0,98,0.00,,,0.20,,2013-07-28 08:02:00,
2013-07-28 04:12:00,70.0,69.0,29.87,North,0,0.0,0.0,98,0.00,,,0.20,,2013-07-28 08:12:00,
2013-07-28 04:22:00,70.0,69.0,29.87,North,0,0.0,0.0,98,0.00,,,0.20,,2013-07-28 08:22:00,
2013-07-28 04:33:00,70.0,69.0,29.88,North,0,0.0,0.0,98,0.00,,,0.20,,2013-07-28 08:33:00,
2013-07-28 04:43:00,70.0,69.0,29.88,North,0,0.0,0.0,98,0.00,,,0.20,,2013-07-28 08:43:00,
2013-07-28 04:53:00,70.0,69.0,29.88,North,0,0.0,0.0,98,0.00,,,0.20,,2013-07-28 08:53:00,
2013-07-28 05:02:00,70.0,69.0,29.88,North,0,0.0,0.0,98,0.00,,,0.20,,2013-07-28 09:02:00,
2013-07-28 05:12:00,70.0,69.0,29.88,North,0,0.0,0.0,98,0.00,,,0.20,,2013-07-28 09:12:00,
2013-07-28 05:22:00,70.0,69.0,29.88,North,0,0.0,0.0,98,0.00,,,0.20,,2013-07-28 09:22:00,
2013-07-28 05:32:00,69.0,68.0,29.88,North,0,0.0,0.0,98,0.00,,,0.20,,2013-07-28 09:32:00,
2013-07-28 05:43:00,69.0,68.0,29.88,North,0,0.0,0.0,98,0.00,,,0.20,,2013-07-28 09:43:00,
2013-07-28 05:53:00,69.0,68.0,29.89,North,0,0.0,0.0,98,0.00,,,0.20,,2013-07-28 09:53:00,
2013-07-28 06:02:00,69.0,68.0,29.89,North,0,0.0,0.0,98,0.00,,,0.20,,2013-07-28 10:02:00,
2013-07-28 06:12:00,69.0,68.0,29.89,North,0,0.0,0.0,98,0.00,,,0.20,,2013-07-28 10:12:00,
2013-07-28 06:22:00,69.0,68.0,29.89,North,0,0.0,0.0,98,0.00,,,0.20,,2013-07-28 10:22:00,
2013-07-28 06:33:00,69.0,68.0,29.89,North,0,0.0,0.0,98,0.00,,,0.20,,2013-07-28 10:33:00,
2013-07-28 06:42:00,69.0,68.0,29.89,North,0,0.0,0.0,98,0.00,,,0.20,,2013-07-28 10:42:00,
2013-07-28 06:53:00,69.0,68.0,29.89,North,0,0.0,0.0,98,0.00,,,0.20,,2013-07-28 10:53:00,
2013-07-28 07:12:00,70.0,69.0,29.89,North,0,0.0,0.0,98,0.00,,,0.20,,2013-07-28 11:12:00,
2013-07-28 07:22:00,70.0,69.0,29.89,North,0,0.0,0.0,98,0.00,,,0.20,,2013-07-28 11:22:00,
2013-07-28 07:33:00,70.0,69.0,29.89,North,0,0.0,0.0,98,0.00,,,0.20,,2013-07-28 11:33:00,
2013-07-28 07:43:00,70.0,69.0,29.89,North,0,0.0,0.0,98,0.00,,,0.20,,2013-07-28 11:43:00,
2013-07-28 07:54:00,70.0,69.0,29.89,North,0,0.0,0.0,98,0.00,,,0.20,,2013-07-28 11:54:00,
2013-07-28 08:03:00,71.0,70.0,29.89,North,0,0.0,0.0,98,0.00,,,0.20,,2013-07-28 12:03:00,
2013-07-28 08:12:00,71.0,70.0,29.90,North,0,0.0,0.0,98,0.00,,,0.20,,2013-07-28 12:12:00,
2013-07-28 08:22:00,71.0,70.0,29.90,North,0,0.0,0.0,98,0.00,,,0.20,,2013-07-28 12:22:00,
2013-07-28 08:33:00,71.0,70.0,29.90,North,0,0.0,0.0,98,0.00,,,0.20,,2013-07-28 12:33:00,
2013-07-28 08:43:00,71.0,70.0,29.90,North,0,0.0,0.0,98,0.00,,,0.20,,2013-07-28 12:43:00,
2013-07-28 08:53:00,71.0,70.0,29.90,North,0,0.0,0.0,98,0.00,,,0.20,,2013-07-28 12:53:00,
2013-07-28 09:02:00,71.0,70.0,29.90,North,0,0.0,0.0,98,0.00,,,0.20,,2013-07-28 13:02:00,
2013-07-28 09:12:00,72.0,71.0,29.90,North,0,0.0,0.0,98,0.00,,,0.20,,2013-07-28 13:12:00,
2013-07-28 09:22:00,72.0,71.0,29.90,North,0,0.0,0.0,98,0.00,,,0.20,,2013-07-28 13:22:00,
2013-07-28 09:32:00,73.0,72.0,29.90,North,0,0.0,0.0,98,0.00,,,0.20,,2013-07-28 13:32:00,
2013-07-28 09:43:00,73.0,72.0,29.90,North,0,0.0,0.0,97,0.00,,,0.20,,2013-07-28 13:43:00,
2013-07-28 09:53:00,74.0,72.0,29.90,North,0,0.0,0.0,95,0.00,,,0.20,,2013-07-28 13:53:00,
2013-07-28 10:02:00,74.0,72.0,29.90,North,0,0.0,0.0,94,0.00,,,0.20,,2013-07-28 14:02:00,
2013-07-28 10:12:00,74.0,72.0,29.90,North,0,0.0,0.0,94,0.00,,,0.20,,2013-07-28 14:12:00,
2013-07-28 10:23:00,74.0,72.0,29.90,North,0,0.0,0.0,94,0.00,,,0.20,,2013-07-28 14:23:00,
2013-07-28 10:33:00,74.0,72.0,29.90,North,0,0.0,0.0,94,0.00,,,0.20,,2013-07-28 14:33:00,
2013-07-28 10:43:00,76.0,73.0,29.90,South,169,1.0,4.0,89,0.00,,,0.20,,2013-07-28 14:43:00,
2013-07-28 10:53:00,77.0,74.0,29.91,SE,144,1.0,5.0,89,0.00,,,0.20,,2013-07-28 14:53:00,
2013-07-28 11:03:00,78.0,73.0,29.91,SSE,167,1.0,4.0,86,0.00,,,0.20,,2013-07-28 15:03:00,
2013-07-28 11:13:00,78.0,73.0,29.91,SSE,167,1.0,4.0,86,0.00,,,0.20,,2013-07-28 15:13:00,
2013-07-28 11:22:00,78.0,73.0,29.91,SSE,167,1.0,4.0,86,0.00,,,0.20,,2013-07-28 15:22:00,
2013-07-28 11:33:00,79.0,74.0,29.91,North,0,0.0,4.0,85,0.00,,,0.20,,2013-07-28 15:33:00,
2013-07-28 11:43:00,79.0,73.0,29.91,North,8,1.0,4.0,82,0.00,,,0.20,,2013-07-28 15:43:00,
2013-07-28 11:53:00,79.0,73.0,29.91,North,8,1.0,4.0,82,0.00,,,0.20,,2013-07-28 15:53:00,
2013-07-28 12:03:00,81.0,75.0,29.91,North,0,0.0,3.0,82,0.00,,,0.20,,2013-07-28 16:03:00,
2013-07-28 12:12:00,81.0,74.0,29.91,North,0,0.0,4.0,80,0.00,,,0.20,,2013-07-28 16:12:00,
2013-07-28 12:22:00,81.0,74.0,29.91,North,0,0.0,4.0,80,0.00,,,0.20,,2013-07-28 16:22:00,
2013-07-28 12:33:00,81.0,73.0,29.91,SSE,151,1.0,7.0,78,0.00,,,0.20,,2013-07-28 16:33:00,
2013-07-28 12:43:00,81.0,74.0,29.91,SE,144,3.0,9.0,79,0.00,,,0.20,,2013-07-28 16:43:00,
2013-07-28 12:52:00,82.0,74.0,29.91,SSE,166,1.0,9.0,76,0.00,,,0.20,,2013-07-28 16:52:00,
2013-07-28 13:02:00,83.0,75.0,29.91,SSE,160,2.0,7.0,76,0.00,,,0.20,,2013-07-28 17:02:00,
2013-07-28 13:13:00,83.0,73.0,29.91,North,0,0.0,9.0,73,0.00,,,0.20,,2013-07-28 17:13:00,
2013-07-28 13:23:00,83.0,73.0,29.91,North,0,0.0,9.0,73,0.00,,,0.20,,2013-07-28 17:23:00,
2013-07-28 13:33:00,83.0,73.0,29.90,North,0,0.0,5.0,73,0.00,,,0.20,,2013-07-28 17:33:00,
2013-07-28 13:43:00,84.0,74.0,29.90,SSE,147,1.0,6.0,72,0.00,,,0.20,,2013-07-28 17:43:00,
2013-07-28 13:53:00,83.0,73.0,29.89,SSE,151,3.0,8.0,72,0.00,,,0.20,,2013-07-28 17:53:00,
2013-07-28 14:03:00,82.0,74.0,29.89,North,0,0.0,2.0,76,0.00,,,0.20,,2013-07-28 18:03:00,
2013-07-28 14:13:00,82.0,74.0,29.89,North,0,0.0,2.0,76,0.00,,,0.20,,2013-07-28 18:13:00,
2013-07-28 14:22:00,82.0,74.0,29.89,North,0,0.0,2.0,76,0.00,,,0.20,,2013-07-28 18:22:00,
2013-07-28 14:33:00,84.0,73.0,29.89,North,0,0.0,7.0,70,0.00,,,0.20,,2013-07-28 18:33:00,
2013-07-28 14:43:00,84.0,73.0,29.89,SE,144,3.0,9.0,69,0.00,,,0.20,,2013-07-28 18:43:00,
2013-07-28 14:52:00,84.0,72.0,29.89,North,0,0.0,10.0,67,0.00,,,0.20,,2013-07-28 18:52:00,
2013-07-28 15:03:00,85.0,73.0,29.88,North,0,0.0,7.0,68,0.00,,,0.20,,2013-07-28 19:03:00,
2013-07-28 15:12:00,85.0,73.0,29.88,South,173,1.0,5.0,67,0.00,,,0.20,,2013-07-28 19:12:00,
2013-07-28 15:23:00,85.0,73.0,29.88,South,173,1.0,5.0,67,0.00,,,0.20,,2013-07-28 19:23:00,
2013-07-28 15:33:00,86.0,72.0,29.88,North,0,0.0,6.0,63,0.00,,,0.20,,2013-07-28 19:33:00,
2013-07-28 15:43:00,86.0,71.0,29.87,North,0,0.0,4.0,61,0.00,,,0.20,,2013-07-28 19:43:00,
2013-07-28 15:52:00,86.0,72.0,29.87,North,0,0.0,5.0,63,0.00,,,0.20,,2013-07-28 19:52:00,
2013-07-28 16:03:00,86.0,72.0,29.87,North,0,0.0,4.0,63,0.00,,,0.20,,2013-07-28 20:03:00,
2013-07-28 16:13:00,86.0,72.0,29.87,North,0,0.0,4.0,63,0.00,,,0.20,,2013-07-28 20:13:00,
2013-07-28 16:23:00,86.0,72.0,29.87,North,0,0.0,4.0,63,0.00,,,0.20,,2013-07-28 20:23:00,
2013-07-28 16:33:00,86.0,71.0,29.87,SSE,151,2.0,6.0,62,0.00,,,0.20,,2013-07-28 20:33:00,
2013-07-28 16:43:00,86.0,73.0,29.87,SSE,162,1.0,6.0,65,0.00,,,0.20,,2013-07-28 20:43:00,
2013-07-28 16:53:00,86.0,72.0,29.87,North,0,0.0,2.0,63,0.00,,,0.20,,2013-07-28 20:53:00,
2013-07-28 17:03:00,86.0,72.0,29.87,North,0,0.0,2.0,63,0.00,,,0.20,,2013-07-28 21:03:00,
2013-07-28 17:13:00,86.0,72.0,29.87,North,0,0.0,2.0,63,0.00,,,0.20,,2013-07-28 21:13:00,
2013-07-28 17:23:00,86.0,72.0,29.87,North,0,0.0,7.0,63,0.00,,,0.20,,2013-07-28 21:23:00,
2013-07-28 17:33:00,86.0,72.0,29.87,North,0,0.0,2.0,63,0.00,,,0.20,,2013-07-28 21:33:00,
2013-07-28 17:44:00,86.0,73.0,29.87,North,0,0.0,3.0,65,0.00,,,0.20,,2013-07-28 21:44:00,
2013-07-28 17:52:00,86.0,72.0,29.87,North,0,0.0,4.0,63,0.00,,,0.20,,2013-07-28 21:52:00,
2013-07-28 18:02:00,86.0,72.0,29.87,North,0,0.0,4.0,63,0.00,,,0.20,,2013-07-28 22:02:00,
2013-07-28 18:12:00,86.0,72.0,29.87,North,0,0.0,4.0,63,0.00,,,0.20,,2013-07-28 22:12:00,
2013-07-28 18:22:00,86.0,72.0,29.87,North,0,0.0,4.0,63,0.00,,,0.20,,2013-07-28 22:22:00,
2013-07-28 18:32:00,85.0,72.0,29.87,North,0,0.0,4.0,66,0.00,,,0.12,,2013-07-28 22:32:00,
2013-07-28 18:43:00,85.0,72.0,29.87,North,0,0.0,6.0,65,0.00,,,0.05,,2013-07-28 22:43:00,
2013-07-28 18:52:00,84.0,71.0,29.87,North,0,0.0,5.0,66,0.00,,,0.05,,2013-07-28 22:52:00,
2013-07-28 19:03:00,84.0,71.0,29.87,North,0,0.0,5.0,66,0.00,,,0.05,,2013-07-28 23:03:00,
2013-07-28 19:12:00,83.0,71.0,29.87,North,0,0.0,2.0,67,0.00,,,0.04,,2013-07-28 23:12:00,
2013-07-28 19:22:00,83.0,71.0,29.87,North,0,0.0,2.0,67,0.00,,,0.04,,2013-07-28 23:22:00,
2013-07-28 19:33:00,83.0,71.0,29.87,North,0,0.0,2.0,67,0.00,,,0.04,,2013-07-28 23:33:00,
2013-07-28 19:43:00,83.0,71.0,29.87,North,0,0.0,2.0,67,0.00,,,0.04,,2013-07-28 23:43:00,
2013-07-28 19:53:00,81.0,72.0,29.89,North,0,0.0,0.0,75,0.00,,,0.01,,2013-07-28 23:53:00,
2013-07-28 20:03:00,81.0,74.0,29.90,North,0,0.0,0.0,80,0.00,,,0.01,,2013-07-29 00:03:00,
2013-07-28 20:22:00,81.0,74.0,29.90,North,0,0.0,0.0,80,0.00,,,0.01,,2013-07-29 00:22:00,
2013-07-28 20:32:00,79.0,74.0,29.89,North,0,0.0,0.0,84,0.00,,,0.01,,2013-07-29 00:32:00,
2013-07-28 20:43:00,78.0,73.0,29.90,North,0,0.0,0.0,85,0.00,,,0.01,,2013-07-29 00:43:00,
2013-07-28 20:52:00,78.0,73.0,29.90,North,0,0.0,0.0,85,0.00,,,0.01,,2013-07-29 00:52:00,
2013-07-28 21:02:00,78.0,73.0,29.90,North,0,0.0,0.0,85,0.00,,,0.01,,2013-07-29 01:02:00,
2013-07-28 21:14:00,76.0,72.0,29.91,North,0,0.0,0.0,87,0.00,,,0.01,,2013-07-29 01:14:00,
2013-07-28 21:29:00,76.0,72.0,29.91,North,0,0.0,0.0,87,0.00,,,0.01,,2013-07-29 01:29:00,
2013-07-28 21:38:00,76.0,72.0,29.91,North,0,0.0,0.0,88,0.00,,,0.01,,2013-07-29 01:38:00,
2013-07-28 21:46:00,75.0,72.0,29.91,North,0,0.0,0.0,89,0.00,,,0.01,,2013-07-29 01:46:00,
2013-07-28 21:58:00,74.0,71.0,29.92,North,0,0.0,0.0,90,0.00,,,0.01,,2013-07-29 01:58:00,
2013-07-28 22:14:00,74.0,71.0,29.92,North,0,0.0,0.0,91,0.00,,,0.01,,2013-07-29 02:14:00,
2013-07-28 22:27:00,74.0,71.0,29.92,North,0,0.0,0.0,91,0.00,,,0.01,,2013-07-29 02:27:00,
2013-07-28 22:37:00,73.0,71.0,29.93,North,0,0.0,0.0,92,0.00,,,0.01,,2013-07-29 02:37:00,
2013-07-28 22:47:00,73.0,71.0,29.93,North,0,0.0,0.0,92,0.00,,,0.01,,2013-07-29 02:47:00,
2013-07-28 22:59:00,73.0,71.0,29.93,North,0,0.0,0.0,92,0.00,,,0.01,,2013-07-29 02:59:00,
2013-07-28 23:05:00,73.0,71.0,29.93,North,0,0.0,0.0,92,0.00,,,0.01,,2013-07-29 03:05:00,
2013-07-28 23:17:00,72.0,70.0,29.92,North,0,0.0,0.0,94,0.00,,,0.01,,2013-07-29 03:17:00,
2013-07-28 23:26:00,72.0,70.0,29.92,North,0,0.0,0.0,94,0.00,,,0.01,,2013-07-29 03:26:00,
2013-07-28 23:37:00,72.0,70.0,29.93,North,0,0.0,0.0,95,0.00,,,0.01,,2013-07-29 03:37:00,
2013-07-28 23:48:00,72.0,70.0,29.93,North,0,0.0,0.0,95,0.00,,,0.01,,2013-07-29 03:48:00,
2013-07-28 23:57:00,72.0,70.0,29.93,North,0,0.0,0.0,95,0.00,,,0.01,,2013-07-29 03:57:00,